Location: Unspecified
(0.0000°N, 0.0000°E)
Time: 11:56:37
(UTC+00:00)

Altair - Visible Passes

Search period start: 26 June 2016 00:00
Search period end: 06 July 2016 00:00
Orbit: 1502 x 1682 km, 47.2° (Epoch: 24 June)

Date Brightness Start Highest point End Pass type
(mag) Time Alt. Az. Time Alt. Az. Time Alt. Az.
26 Jun 9.5 01:24:51 14° ENE 01:24:51 14° ENE 01:26:00 10° ENE visible
26 Jun 8.1 03:22:52 39° NW 03:22:52 39° NW 03:30:30 10° NNE visible
27 Jun 8.3 02:59:12 38° NNW 02:59:12 38° NNW 03:05:33 10° NNE visible
28 Jun 8.5 02:35:29 33° N 02:35:29 33° N 02:40:34 10° NNE visible
29 Jun 8.9 02:11:44 27° NNE 02:11:44 27° NNE 02:15:33 10° NNE visible
30 Jun 9.2 01:47:55 21° NNE 01:47:55 21° NNE 01:50:30 10° NNE visible
01 Jul 9.5 01:24:04 15° NNE 01:24:04 15° NNE 01:25:26 10° NNE visible
01 Jul 9.3 03:22:05 12° NW 03:22:05 12° NW 03:24:24 10° NNW visible
02 Jul 9.7 01:00:10 11° NE 01:00:10 11° NE 01:00:20 10° NE visible
02 Jul 9.3 02:58:10 13° NNW 02:58:10 13° NNW 03:00:23 10° NNW visible
03 Jul 9.4 02:34:13 13° NNW 02:34:13 13° NNW 02:36:03 10° N visible
04 Jul 9.5 02:10:14 13° NNW 02:10:14 13° NNW 02:11:32 10° N visible
05 Jul 9.6 01:46:12 12° N 01:46:12 12° N 01:46:55 10° N visible
